Regional Weather Roundup
Issued by NWS Portland, ME

Home | Current Version | Previous Version | Text Only | Print | Product List | Glossary On
Versions: 1 2 3 4 5 6 7 8 9 10 11 12 13 14 15 16 17 18 19 20 21 22 23 24 25 26 27 28 29 30 31 32 33 34 35 36 37 38 39 40 41 42 43 44 45 46 47 48 49 50
000
ASUS41 KGYX 040410
RWRGYX
WEATHER ROUNDUP FOR MAINE AND NEW HAMPSHIRE
NATIONAL WEATHER SERVICE GRAY ME
1200 AM EDT FRI SEP 04 2015

MEZ002-005-006-010-012-015-018-020-021-024-026-027-029-040500-
MAINE

CITY           SKY/WX    TMP DP  RH WIND       PRES   REMARKS
PORTLAND       PTCLDY    70  69  97 N5        29.96R
SANFORD        PTCLDY    68  64  88 CALM      29.96R
BAR HARBOR     CLEAR     63  54  72 N7        30.00R
WISCASSET      MOCLDY    69  58  67 VRB5      29.98R
ROCKLAND       CLEAR     70  54  56 NE13G23   29.96R
FRYEBURG       PTCLDY    66  65  96 CALM      30.00R
LEWISTONAUBURN PTCLDY    70 N/A N/A NE12      29.99R
AUGUSTA        CLEAR     67  51  56 NE9       30.00R
WATERVILLE     CLEAR     64  48  55 N14       29.99R
BANGOR         CLEAR     62  49  62 N8        30.03R
GREENVILLE       N/A     57  47  69 NW6       30.05R
MILLINOCKET    CLEAR     59  48  67 N5        30.07R
HOULTON        CLEAR     48  45  89 CALM      30.04R
PRESQUE ISLE   CLEAR     48  43  81 CALM      30.06R
FRENCHVILLE    CLEAR     49  46  90 N7        30.07R
CARIBOU        CLEAR     51  44  77 N3        30.06R
$$

NHZ002-005-008-009-011-012-014-040500-
NEW HAMPSHIRE

CITY           SKY/WX    TMP DP  RH WIND       PRES   REMARKS
PORTSMOUTH     MOCLDY    71  66  85 NW2       29.93R
ROCHESTER      PTCLDY    70  67  90 CALM      29.95R
NASHUA         CLOUDY    75  69  81 CALM      29.96R
MANCHESTER     MOCLDY    75  66  73 N3        29.94R
CONCORD        MOCLDY    69  67  93 CALM      29.96R FOG
LACONIA        PTCLDY    70  64  83 CALM      29.97R
PLYMOUTH       MOCLDY    67  61  80 CALM      29.98R
BERLIN         PTCLDY    52  50  93 CALM      30.04R FOG
WHITEFIELD     LGT RAIN  55  53  93 CALM      30.02F
JAFFREY        CLOUDY    70  68  93 CALM      29.99R
KEENE          PTCLDY    70  63  78 CALM      29.97R
LEBANON        CLEAR     65  62  90 CALM      30.00R FOG
MT WASHINGTON  PTCLDY    52  46  82 SE10        N/A
$$

VTZ005-007-008-040500-
VERMONT

CITY           SKY/WX    TMP DP  RH WIND       PRES   REMARKS
ST JOHNSBURY     N/A     59  54  83 MISG      30.01R
MONTPELIER     CLEAR     56  52  86 CALM      30.07S
BURLINGTON     CLEAR     62  55  77 N5        30.01R
$$

MAZ007-012-024-CTZ003-RIZ002-NYZ038-NYZ072-040500-
SOUTHERN NEW ENGLAND AND NY

CITY           SKY/WX    TMP DP  RH WIND       PRES   REMARKS
BOSTON         CLOUDY    73  67  81 CALM      29.94R THUNDER
WORCESTER      PTCLDY    73  65  75 NE3       29.97R
NANTUCKET        N/A    N/A N/A N/A MISG        N/A
PROVIDENCE     CLOUDY    75  72  90 NE7       29.92R FOG
HARTFORD       MOCLDY    73  66  78 N5        29.91R
ALBANY         MOCLDY    74  61  63 N10       29.96R
NEW YORK CITY  MOCLDY    83  65  54 CALM      29.88S
$$

ANZ081-ANZ082-ANZ150-NHZ014-MEZ023>029-040500-
COASTAL MARINE OBSERVATIONS

STATION/POSITION TIME  TEMP    WIND        PRES    WAVE
                       AIR SEA DIR/SP/G            HT/PER
                 (UTC) (F)     (DEG/KT/KT) (MB)    (FT/S)
MOUNT DESERT ROC 0400   60      30/ 17/ 19 1015.0R
MATINICUS ROCK   0300           40/ 15/ 19 1013.5R
ISLE OF SHOALS   0300   70      10/  7/  7 1012.9R
JEFFREYS LEDGE   0303      69                N/A     1/14
CASHES LEDGE BUO 0350   68                 1013.7R   1/13
GEORGES BANK BUO 0350   70 69  210/  2/  2 1012.5R   1/11
$$

.............KEY..............
   WCI - WIND CHILL
   TC  - TEMPERATURE IN CELSIUS
   VSB - VISIBILITY IN MILES
   HX  - HEAT INDEX
   FAIR- INDICATES FEW OR NO CLOUDS BELOW 12,000 FT, WITH NO
         SIGNIFICANT WEATHER AND/OR OBSTRUCTIONS TO VISIBILITY.




USA.gov is the U.S. government's official web portal to all federal, state and local government web resources and services.